CP12 (EXOCUBE 2) (47319 NORAD) Tracking and Keplerian Element Data

This shows tracking and keplerian element data for the satellite.

Feedback or suggestion? Click here.




ElementValue
Catalog47319
NameCP12 (EXOCUBE 2)
Epoch Orbit667
Epoch Day62.23675879
Epoch Year2021
RAAN328.7948
Inclination60.6847
Eccentricity0.0020338
Argument of Perigee335.2175
Mean Anonmoly24.7932
Mean Motion15.2093941
Decay Rate1.356E-05
L11 47319U 21002L 21062.23675879 .00001356 00000-0 72609-4 0 9990
L22 47319 60.6847 328.7948 0020338 335.2175 24.7932 15.20939410 6670

Live tracking and technical data element details for CP12 (EXOCUBE 2) (NORAD 47319). CP12 (EXOCUBE 2) can be tracked NOW for your location showing map with azimuth and elevation plus other details from your city location.

Track the satellite on the map from your city or location and see movement details for azimuth, elevation, latitude, longitude, range, height, and movement on the map or in text.







IsCatalogInMostPopularTable: catalog: 47319, numindb: 15
Update: records affected: 1



GetName: 47319 CP12 (EXOCUBE 2)

Hit Count: updated at: Fri, 05 Mar 2021 07:18:21 GMT